FW5442 Weather Reports


Display with metric or nautical units.
time (UTC)temp
F
wind
direction
speed
MPH
gust
MPH
rain 1hr
in
rain 24hr
in
rain mn
in
humidity
%
barometer
mb
20260507021601 54 30 7.0 14.0 0.00 0.04 0.04 79 1014.1
20260507021052 54 314 7.0 14.0 0.00 0.04 0.04 79 1013.9
20260507020556 54 337 8.0 14.0 0.00 0.04 0.04 79 1013.9
20260507020101 54 0 4.0 14.0 0.00 0.04 0.04 79 1013.6
20260507015555 54 0 4.0 16.0 0.00 0.04 0.04 80 1013.0
20260507015052 54 37 7.0 18.0 0.00 0.04 0.04 80 1013.0
20260507014553 54 23 9.0 18.0 0.00 0.04 0.04 80 1012.9
20260507014052 54 356 10.0 15.0 0.00 0.04 0.04 80 1012.9
20260507013557 54 327 10.0 16.0 0.00 0.04 0.04 79 1012.8
20260507013058 54 4 7.0 18.0 0.00 0.04 0.04 79 1012.7
20260507012556 55 356 10.0 21.0 0.00 0.04 0.04 79 1012.7
20260507012055 55 11 11.0 21.0 0.00 0.04 0.04 80 1012.6
20260507011558 55 343 10.0 18.0 0.00 0.04 0.04 80 1012.9
20260507011055 55 359 11.0 18.0 0.00 0.04 0.04 80 1012.7
20260507010555 55 5 9.0 18.0 0.00 0.04 0.04 80 1012.9
20260507010110 55 10 10.0 16.0 0.00 0.04 0.04 80 1012.9
20260507005556 55 346 9.0 15.0 0.00 0.04 0.04 81 1013.2
20260507005055 55 314 7.0 12.0 0.00 0.04 0.04 80 1013.4
20260507004554 55 323 5.0 14.0 0.00 0.04 0.04 80 1013.0
20260507004055 55 26 7.0 16.0 0.00 0.04 0.04 80 1012.9
20260507003555 55 321 10.0 18.0 0.00 0.04 0.04 81 1012.9
20260507003056 55 5 11.0 18.0 0.00 0.04 0.04 82 1012.4
20260507002554 55 350 9.0 19.0 0.00 0.04 0.04 81 1012.4
20260507002055 55 27 8.0 19.0 0.00 0.04 0.04 81 1012.4
20260507001559 55 316 10.0 19.0 0.00 0.04 0.04 82 1012.4
20260507001054 55 23 9.0 15.0 0.00 0.04 0.04 81 1012.2
20260507000557 56 3 9.0 17.0 0.00 0.04 0.04 81 1012.5
20260507000101 56 23 7.0 18.0 0.00 0.04 0.04 81 1012.7
20260506235556 56 356 7.0 18.0 0.00 0.04 0.04 81 1012.8
20260506235058 56 21 10.0 18.0 0.00 0.04 0.04 82 1012.8
20260506234602 56 326 9.0 17.0 0.00 0.04 0.04 82 1013.1
20260506234055 56 18 8.0 17.0 0.00 0.04 0.04 82 1012.8
20260506233552 56 21 10.0 17.0 0.00 0.04 0.04 82 1012.9
20260506233105 56 9 9.0 15.0 0.00 0.04 0.04 82 1012.9
20260506232554 56 340 8.0 14.0 0.00 0.04 0.04 81 1012.8
20260506232054 56 359 6.0 14.0 0.00 0.04 0.04 82 1012.8
20260506231558 56 6 7.0 14.0 0.00 0.04 0.04 82 1012.7
20260506231055 56 11 4.0 13.0 0.00 0.04 0.04 83 1012.8
20260506230556 57 8 3.0 14.0 0.00 0.04 0.04 82 1012.9
20260506230059 56 15 9.0 14.0 0.00 0.04 0.04 82 1012.5
20260506225558 57 351 9.0 13.0 0.00 0.04 0.04 82 1012.4
20260506225059 57 352 7.0 13.0 0.00 0.04 0.04 82 1012.3
20260506224600 57 0 6.0 12.0 0.00 0.04 0.04 83 1012.3
20260506224054 57 6 6.0 12.0 0.00 0.04 0.04 83 1012.5
20260506223555 57 23 3.0 9.0 0.00 0.04 0.04 82 1012.5
20260506223101 57 21 4.0 9.0 0.00 0.04 0.04 82 1012.4
20260506222555 56 4 0.0 10.0 0.00 0.04 0.04 82 1012.3
20260506222055 56 0 1.0 10.0 0.00 0.04 0.04 83 1012.6
20260506221608 56 339 4.0 10.0 0.00 0.04 0.04 83 1012.4
20260506221055 56 0 0.0 6.0 0.00 0.04 0.04 81 1012.4
20260506220557 56 27 2.0 11.0 0.00 0.04 0.04 82 1012.3
20260506220057 56 22 1.0 11.0 0.00 0.04 0.04 81 1012.3
20260506215555 56 32 4.0 11.0 0.00 0.04 0.04 82 1012.4
20260506215056 56 39 0.0 11.0 0.00 0.04 0.04 80 1012.4
20260506214601 56 51 4.0 11.0 0.00 0.04 0.04 81 1012.4
20260506214052 56 321 1.0 10.0 0.00 0.04 0.04 81 1012.1
20260506213554 56 0 3.0 15.0 0.00 0.04 0.04 80 1012.1
20260506213057 55 31 3.0 15.0 0.00 0.04 0.04 80 1011.7
20260506212555 55 356 5.0 12.0 0.00 0.04 0.04 80 1011.6
20260506212056 55 23 3.0 12.0 0.00 0.04 0.04 77 1011.5
20260506211559 55 0 6.0 12.0 0.00 0.04 0.04 78 1011.8
20260506211055 55 0 6.0 12.0 0.00 0.04 0.04 76 1012.1
20260506210554 55 345 4.0 10.0 0.00 0.04 0.04 76 1012.4
20260506210057 54 0 3.0 10.0 0.00 0.04 0.04 75 1012.7
20260506205551 54 300 4.0 10.0 0.00 0.04 0.04 76 1012.6
20260506205055 54 316 0.0 10.0 0.00 0.04 0.04 74 1012.0
20260506204613 54 2 1.0 15.0 0.01 0.04 0.04 74 1012.0
20260506204055 54 14 6.0 21.0 0.01 0.04 0.04 75 1012.0
20260506203554 54 0 4.0 21.0 0.01 0.04 0.04 75 1011.9
20260506203056 54 6 9.0 20.0 0.02 0.04 0.04 73 1013.1
20260506202556 54 28 9.0 20.0 0.02 0.04 0.04 71 1013.4
20260506202055 54 7 13.0 24.0 0.02 0.04 0.04 70 1013.5
20260506201600 54 322 11.0 24.0 0.02 0.04 0.04 69 1013.5
20260506201057 54 26 14.0 24.0 0.02 0.04 0.04 68 1013.7
20260506200552 54 26 14.0 22.0 0.02 0.04 0.04 65 1013.7
20260506200053 54 323 14.0 22.0 0.02 0.04 0.04 66 1013.9
20260506195558 54 340 13.0 20.0 0.02 0.04 0.04 66 1014.0
20260506195052 54 328 9.0 25.0 0.02 0.04 0.04 65 1014.1
20260506194555 54 333 13.0 25.0 0.01 0.03 0.03 67 1014.0
20260506194054 54 340 16.0 25.0 0.01 0.03 0.03 70 1014.0
20260506193554 54 340 15.0 22.0 0.01 0.03 0.03 73 1014.0
20260506193055 54 337 13.0 21.0 0.00 0.02 0.02 74 1014.2
20260506192558 54 322 12.0 21.0 0.00 0.02 0.02 74 1014.0
20260506192056 54 316 9.0 15.0 0.00 0.02 0.02 72 1013.8
20260506191553 54 340 11.0 14.0 0.00 0.02 0.02 73 1013.9
20260506191052 54 316 8.0 14.0 0.00 0.02 0.02 73 1014.0
20260506190555 55 352 8.0 14.0 0.00 0.02 0.02 77 1013.9
20260506190054 55 313 8.0 16.0 0.00 0.02 0.02 79 1013.7
20260506185555 55 15 10.0 16.0 0.00 0.02 0.02 80 1013.8
20260506185055 55 7 10.0 16.0 0.00 0.02 0.02 80 1013.9
20260506184557 55 334 7.0 14.0 0.00 0.02 0.02 81 1013.9
20260506184052 55 323 7.0 14.0 0.00 0.02 0.02 81 1013.9
20260506183555 55 352 7.0 13.0 0.00 0.02 0.02 80 1013.7
20260506183055 55 356 3.0 14.0 0.00 0.02 0.02 77 1013.8
20260506182555 55 4 6.0 16.0 0.00 0.02 0.02 80 1013.8
20260506182054 55 1 11.0 16.0 0.00 0.02 0.02 80 1013.9
20260506181553 55 19 9.0 15.0 0.00 0.02 0.02 79 1014.0
20260506181052 55 328 9.0 16.0 0.00 0.02 0.02 78 1013.9
20260506180555 55 37 7.0 16.0 0.00 0.02 0.02 76 1013.9
20260506175554 55 6 9.0 18.0 0.00 0.02 0.02 72 1013.6
20260506175054 55 23 8.0 17.0 0.00 0.02 0.02 68 1013.5
20260506174559 55 24 7.0 17.0 0.00 0.02 0.02 65 1013.3
20260506174058 54 13 11.0 17.0 0.00 0.02 0.02 63 1013.4
20260506173552 55 342 5.0 16.0 0.00 0.02 0.02 62 1013.5
20260506173126 55 335 9.0 17.0 0.00 0.02 0.02 64 1013.6
20260506172551 55 1 11.0 17.0 0.00 0.02 0.02 68 1013.6
20260506172053 55 3 10.0 16.0 0.00 0.02 0.02 66 1013.6
20260506171555 55 8 10.0 15.0 0.00 0.02 0.02 64 1013.6
20260506171055 55 345 10.0 14.0 0.00 0.02 0.02 62 1013.7
20260506170555 55 34 7.0 15.0 0.00 0.02 0.02 61 1013.9
20260506170055 55 342 11.0 15.0 0.00 0.02 0.02 63 1013.8
20260506165554 55 333 10.0 15.0 0.00 0.02 0.02 63 1013.8
20260506165055 55 345 10.0 14.0 0.00 0.02 0.02 65 1014.1
20260506164553 55 319 8.0 17.0 0.00 0.02 0.02 63 1014.1
20260506164054 55 340 9.0 17.0 0.00 0.02 0.02 65 1014.0
20260506163554 55 338 8.0 16.0 0.00 0.02 0.02 63 1013.9
20260506163056 55 336 9.0 16.0 0.00 0.02 0.02 65 1013.6
20260506162553 55 345 10.0 18.0 0.00 0.02 0.02 65 1013.4
20260506162053 55 340 11.0 18.0 0.00 0.02 0.02 64 1013.4
20260506161603 55 324 10.0 15.0 0.00 0.02 0.02 64 1013.4
20260506161055 55 25 9.0 15.0 0.00 0.02 0.02 62 1013.4
20260506160553 55 330 10.0 16.0 0.00 0.02 0.02 64 1013.4
20260506160054 55 11 9.0 17.0 0.00 0.02 0.02 63 1013.2
20260506155553 55 14 9.0 17.0 0.00 0.02 0.02 64 1013.2
20260506155054 55 20 8.0 17.0 0.00 0.02 0.02 64 1013.1
20260506154554 55 22 10.0 18.0 0.00 0.02 0.02 63 1013.1
20260506154054 55 1 9.0 18.0 0.00 0.02 0.02 62 1013.3
20260506153553 54 354 10.0 18.0 0.00 0.02 0.02 62 1013.2
20260506153057 54 345 9.0 17.0 0.00 0.02 0.02 60 1013.0
20260506152553 54 338 8.0 15.0 0.00 0.02 0.02 59 1013.0
20260506152056 54 356 11.0 15.0 0.00 0.02 0.02 60 1012.9
20260506151603 54 342 11.0 15.0 0.00 0.02 0.02 61 1012.9
20260506151053 54 341 8.0 15.0 0.00 0.02 0.02 59 1012.7
20260506150553 54 22 9.0 14.0 0.00 0.02 0.02 59 1012.8
20260506150106 54 341 9.0 14.0 0.00 0.02 0.02 60 1012.7
20260506145553 54 329 9.0 14.0 0.01 0.02 0.02 59 1012.5
20260506145056 54 330 7.0 13.0 0.01 0.02 0.02 60 1012.5
20260506144611 54 333 9.0 13.0 0.01 0.02 0.02 62 1012.9
20260506144054 54 346 8.0 17.0 0.01 0.02 0.02 62 1012.7
20260506143554 54 330 10.0 17.0 0.01 0.02 0.02 63 1012.8
20260506143057 54 334 12.0 16.0 0.01 0.02 0.02 63 1012.8
20260506142557 54 352 11.0 16.0 0.01 0.02 0.02 64 1012.7
20260506142053 55 7 9.0 18.0 0.01 0.02 0.02 63 1012.5
20260506141554 55 324 11.0 18.0 0.01 0.02 0.02 61 1012.4
20260506141056 55 7 11.0 17.0 0.01 0.02 0.02 59 1012.3
20260506140554 55 325 10.0 15.0 0.01 0.02 0.02 57 1012.3
20260506140106 55 350 9.0 14.0 0.01 0.02 0.02 57 1012.2
20260506135553 56 326 9.0 13.0 0.00 0.01 0.01 57 1012.2
20260506135052 56 2 7.0 11.0 0.00 0.01 0.01 58 1012.0
20260506134554 56 341 6.0 11.0 0.00 0.01 0.01 59 1011.7
20260506134054 56 34 6.0 11.0 0.00 0.01 0.01 60 1011.3
20260506133553 56 319 6.0 11.0 0.00 0.01 0.01 60 1011.5
20260506133133 56 13 6.0 10.0 0.00 0.01 0.01 59 1011.5
20260506132554 56 315 5.0 11.0 0.00 0.01 0.01 61 1011.5
20260506132055 56 12 5.0 12.0 0.00 0.01 0.01 62 1011.4
20260506131558 56 342 8.0 17.0 0.00 0.01 0.01 65 1011.5
20260506131058 56 20 7.0 17.0 0.00 0.01 0.01 66 1011.5
20260506130552 56 347 10.0 17.0 0.00 0.01 0.01 67 1011.6
20260506130138 56 336 9.0 14.0 0.00 0.01 0.01 67 1011.6
20260506125554 56 359 6.0 14.0 0.00 0.01 0.01 67 1011.3
20260506125054 56 353 9.0 14.0 0.00 0.01 0.01 67 1011.4
20260506124553 56 345 6.0 11.0 0.00 0.01 0.01 66 1011.2
20260506124054 56 15 5.0 10.0 0.00 0.01 0.01 66 1011.1
20260506123554 56 9 6.0 10.0 0.00 0.01 0.01 67 1011.0
20260506123101 56 5 6.0 10.0 0.00 0.01 0.01 67 1010.8
20260506122552 56 345 4.0 8.0 0.01 0.01 0.01 66 1010.7
20260506122050 56 349 4.0 10.0 0.01 0.01 0.01 66 1010.8
20260506121600 56 18 4.0 11.0 0.01 0.01 0.01 68 1010.6
20260506121055 56 41 5.0 12.0 0.01 0.01 0.01 67 1010.5
20260506120556 56 48 6.0 12.0 0.01 0.01 0.01 69 1010.4
20260506120104 56 323 6.0 13.0 0.01 0.01 0.01 67 1010.2
20260506115555 56 357 6.0 16.0 0.01 0.01 0.01 68 1010.1
20260506115055 56 8 8.0 16.0 0.01 0.01 0.01 70 1010.3
20260506114554 57 8 10.0 16.0 0.01 0.01 0.01 70 1010.2
20260506114051 57 340 8.0 13.0 0.01 0.01 0.01 68 1010.4
20260506113552 57 21 8.0 13.0 0.01 0.01 0.01 67 1010.3
20260506113054 58 16 7.0 13.0 0.01 0.01 0.01 65 1010.2
20260506112554 58 7 6.0 10.0 0.00 0.00 0.00 66 1010.2
20260506112054 58 329 1.0 12.0 0.00 0.00 0.00 67 1009.9
20260506111557 58 34 6.0 15.0 0.00 0.00 0.00 68 1009.8
20260506111054 58 19 9.0 15.0 0.00 0.00 0.00 69 1009.8
20260506110554 57 11 8.0 12.0 0.00 0.00 0.00 70 1009.7
20260506110053 57 18 6.0 12.0 0.00 0.00 0.00 71 1009.8
20260506105552 58 17 5.0 15.0 0.00 0.00 0.00 71 1009.7
20260506105054 58 355 6.0 18.0 0.00 0.00 0.00 73 1009.6
20260506104559 58 322 10.0 22.0 0.00 0.00 0.00 75 1009.6
20260506104051 58 359 11.0 22.0 0.00 0.00 0.00 77 1009.5
20260506103554 58 350 16.0 32.0 0.00 0.00 0.00 79 1009.7
20260506103055 59 329 16.0 50.0 0.00 0.00 0.00 81 1010.0
20260506102555 60 320 29.0 50.0 0.00 0.00 0.00 83 1010.1
20260506102056 62 323 28.0 50.0 0.00 0.00 0.00 82 1009.9
20260506101556 65 322 6.0 25.0 0.00 0.00 0.00 81 1008.4
20260506101053 71 311 15.0 25.0 0.00 0.00 0.00 72 1008.3
20260506100552 74 250 18.0 25.0 0.00 0.00 0.00 81 1008.1
20260506100106 74 237 17.0 27.0 0.00 0.00 0.00 81 1007.5
20260506095552 74 226 18.0 27.0 0.00 0.00 0.00 81 1007.4
20260506095052 74 219 15.0 25.0 0.00 0.00 0.00 80 1007.0
20260506094603 74 238 19.0 25.0 0.00 0.00 0.00 80 1007.0
20260506094052 74 229 17.0 25.0 0.00 0.00 0.00 81 1006.7
20260506093551 74 221 17.0 25.0 0.00 0.00 0.00 81 1006.8
20260506093054 74 210 18.0 24.0 0.00 0.00 0.00 81 1006.8
20260506092552 74 226 17.0 27.0 0.00 0.00 0.00 81 1007.0
20260506092057 74 228 18.0 29.0 0.00 0.00 0.00 81 1007.1
20260506091607 74 223 18.0 29.0 0.00 0.00 0.00 81 1007.0
20260506091056 74 229 17.0 27.0 0.00 0.00 0.00 81 1007.4
20260506090557 74 219 15.0 26.0 0.00 0.00 0.00 81 1007.2
20260506090057 74 226 13.0 19.0 0.00 0.00 0.00 81 1007.5
20260506085556 74 238 13.0 19.0 0.00 0.00 0.00 81 1007.7
20260506085058 74 229 14.0 21.0 0.00 0.00 0.00 81 1007.6
20260506084601 74 229 14.0 22.0 0.00 0.00 0.00 81 1007.6
20260506084056 74 231 17.0 26.0 0.00 0.00 0.00 81 1007.6
20260506083556 74 224 18.0 26.0 0.00 0.00 0.00 81 1007.5
20260506083058 74 244 17.0 23.0 0.00 0.00 0.00 81 1006.8
20260506082555 74 217 15.0 23.0 0.00 0.00 0.00 81 1006.8
20260506082056 74 237 16.0 23.0 0.00 0.00 0.00 81 1006.8
20260506081609 74 196 16.0 23.0 0.00 0.00 0.00 81 1006.7
20260506081056 74 227 15.0 21.0 0.00 0.00 0.00 81 1006.9
20260506080557 74 222 15.0 22.0 0.00 0.00 0.00 81 1006.8
20260506073057 74 226 17.0 28.0 0.00 0.00 0.00 81 1006.9
20260506072556 74 211 20.0 28.0 0.00 0.00 0.00 81 1006.8
20260506072056 74 200 20.0 28.0 0.00 0.00 0.00 81 1007.0
20260506071600 74 226 18.0 27.0 0.00 0.00 0.00 81 1007.0
20260506071059 74 206 17.0 26.0 0.00 0.00 0.00 81 1006.7
20260506070556 74 223 16.0 25.0 0.00 0.00 0.00 81 1007.0
20260506062057 74 195 13.0 24.0 0.00 0.00 0.00 82 1007.2
20260506061603 74 198 15.0 21.0 0.00 0.00 0.00 82 1007.2
20260506061056 74 198 15.0 21.0 0.00 0.00 0.00 82 1007.3
20260506060557 74 186 13.0 19.0 0.00 0.00 0.00 82 1007.2
20260506051056 74 224 11.0 22.0 0.00 0.00 0.00 81 1007.5
20260506050557 74 207 13.0 19.0 0.00 0.00 0.00 81 1007.6
20260506045057 74 189 10.0 17.0 0.00 0.00 0.00 81 1007.2
20260506044557 74 199 11.0 17.0 0.00 0.00 0.00 81 1007.2
20260506044056 74 183 9.0 17.0 0.00 0.00 0.00 81 1007.0
20260506043556 74 179 10.0 18.0 0.00 0.00 0.00 81 1007.4
20260506043100 74 181 11.0 20.0 0.00 0.00 0.00 81 1007.2
20260506042556 74 162 12.0 20.0 0.00 0.00 0.00 81 1007.3
20260506042056 74 152 12.0 20.0 0.00 0.00 0.00 81 1007.4
20260506041558 74 189 10.0 18.0 0.00 0.00 0.00 81 1007.6
20260506041055 74 177 11.0 19.0 0.00 0.00 0.00 80 1007.5
20260506040556 74 187 14.0 19.0 0.00 0.00 0.00 80 1007.6
20260506040100 74 179 11.0 18.0 0.00 0.00 0.00 80 1007.7
20260506035556 74 175 12.0 18.0 0.00 0.00 0.00 80 1007.8
20260506035056 74 180 10.0 19.0 0.00 0.00 0.00 80 1007.7
20260506034612 75 165 10.0 19.0 0.00 0.00 0.00 80 1007.8
20260506034056 75 196 13.0 19.0 0.00 0.00 0.00 80 1008.0
20260506033556 74 170 11.0 18.0 0.00 0.00 0.00 80 1007.7
20260506033059 74 212 9.0 18.0 0.00 0.00 0.00 80 1007.7
20260506032556 74 169 11.0 18.0 0.00 0.00 0.00 80 1007.6
20260506032056 74 174 12.0 18.0 0.00 0.00 0.00 80 1007.7
20260506031605 75 194 10.0 15.0 0.00 0.00 0.00 79 1007.6
20260506031058 75 184 4.0 13.0 0.00 0.00 0.00 79 1007.7
20260506030556 75 0 6.0 13.0 0.00 0.00 0.00 79 1007.6
20260506030054 75 187 8.0 16.0 0.00 0.00 0.00 79 1008.0
20260506025557 75 179 7.0 16.0 0.00 0.00 0.00 79 1007.9
20260506025056 75 183 11.0 18.0 0.00 0.00 0.00 79 1007.7
20260506024556 75 171 9.0 18.0 0.00 0.00 0.00 79 1007.6
20260506024056 75 169 9.0 14.0 0.00 0.00 0.00 79 1007.6
20260506023556 75 176 6.0 14.0 0.00 0.00 0.00 78 1007.3
20260506023105 75 226 7.0 15.0 0.00 0.00 0.00 78 1007.4
20260506022556 75 175 10.0 15.0 0.00 0.00 0.00 78 1007.4
20260506022056 75 196 7.0 18.0 0.00 0.00 0.00 78 1007.2